Waarnemingen

Advertentie
Mijn weer
Florennes, België (6456): temperatuur & dauwpunt: 11.08.2018 13:00:00 - 17.08.2018 13:00:00 (CEST)Florennes, België (6456): windsnelheid & windstoten: 11.08.2018 13:00:00 - 17.08.2018 13:00:00 (CEST)Florennes, België (6456): windrichting: 11.08.2018 13:00:00 - 17.08.2018 13:00:00 (CEST)Florennes, België (6456): luchtdruk: 11.08.2018 13:00:00 - 17.08.2018 13:00:00 (CEST)Florennes, België (6456): zicht: 11.08.2018 13:00:00 - 17.08.2018 13:00:00 (CEST)
Datum & Tijd tt [°C] td [°C] ff [km/u] ff [kn] fx [km/u] fx [kn] dd ppp [hPa] vv [km]
17.08.2018 13:00:00 17,6 12,5 7 4 0 0 N 1019,7 15
17.08.2018 12:00:00 16,3 13,7 7 4 0 0 N 1019,7 15
17.08.2018 11:00:00 15,3 13,5 8 4 - - N 1019,3 10
17.08.2018 10:00:00 14,7 13,8 7 4 0 0 N 1018,6 6
17.08.2018 09:00:00 14,4 14,0 7 4 0 0 N 1018,2 2,5
17.08.2018 08:00:00 14,5 14,1 9 5 - - N 1017,5 1,2
17.08.2018 07:00:00 14,1 13,9 7 4 0 0 N 1017,0 4,5
17.08.2018 06:00:00 14,1 13,8 7 4 0 0 N 1016,6 7
17.08.2018 05:00:00 14,3 14,0 9 5 - - NW 1016,6 5
17.08.2018 04:00:00 14,6 13,9 - - 0 0 - 1018,1 8
17.08.2018 03:00:00 14,2 13,2 - - 0 0 - 1016,3 20
17.08.2018 02:00:00 17,2 15,3 - - - - - 1014,8 10
17.08.2018 01:00:00 17,8 15,3 - - 0 0 - 1015,1 17
17.08.2018 00:00:00 18,4 15,0 - - 0 0 - 1014,3 20
16.08.2018 23:00:00 18,8 14,2 - - - - - 1014,6 20
16.08.2018 22:00:00 19,9 14,3 - - 0 0 - 1014,2 20
16.08.2018 21:00:00 22,9 13,7 - - 0 0 - 1013,5 20
16.08.2018 20:00:00 24,9 13,3 - - - - - 1013,0 20
16.08.2018 19:00:00 26,2 12,9 - - 0 0 - 1013,0 20
16.08.2018 18:00:00 26,2 12,9 11 6 0 0 ZW 1013,3 20
16.08.2018 17:00:00 25,8 13,1 11 6 - - ZW 1013,7 20
16.08.2018 16:00:00 26,1 13,1 11 6 0 0 ZW 1014,1 20
16.08.2018 15:00:00 25,1 13,6 4 2 0 0 N 1014,6 20
16.08.2018 14:00:00 23,8 14,1 4 2 - - N 1015,1 20
16.08.2018 13:00:00 22,4 14,4 4 2 0 0 N 1015,7 20
16.08.2018 12:00:00 20,6 14,9 4 2 0 0 N 1016,3 20
16.08.2018 11:00:00 19,6 14,2 4 2 - - N 1016,8 20
16.08.2018 10:00:00 17,8 13,8 4 2 0 0 N 1017,3 20
16.08.2018 09:00:00 16,3 13,2 4 2 0 0 N 1017,7 10
16.08.2018 08:00:00 15,1 13,4 4 2 - - N 1018,0 10
16.08.2018 07:00:00 12,5 11,6 4 2 0 0 N 1018,5 10
16.08.2018 06:00:00 13,6 12,1 4 2 0 0 N 1018,3 15
16.08.2018 05:00:00 13,6 12,2 - - - - - 1018,6 17
16.08.2018 04:00:00 13,6 12,4 - - 0 0 - 1019,1 18
16.08.2018 03:00:00 13,6 12,2 - - 0 0 - 1019,2 14
16.08.2018 02:00:00 13,4 12,1 - - - - - 1019,7 17
16.08.2018 01:00:00 14,3 12,4 - - 0 0 - 1019,7 16
16.08.2018 00:00:00 15,3 12,8 - - 0 0 - 1019,7 19
15.08.2018 23:00:00 16,2 13,2 - - - - - 1019,7 20
15.08.2018 22:00:00 16,6 14,0 - - 0 0 - 1020,0 20
15.08.2018 21:00:00 17,7 14,0 - - 0 0 - 1019,7 20
15.08.2018 20:00:00 18,7 14,0 - - - - - 1019,6 20
15.08.2018 19:00:00 19,8 13,8 - - 0 0 - 1019,7 20
15.08.2018 18:00:00 19,7 14,1 - - 0 0 - 1020,1 20
15.08.2018 17:00:00 19,4 14,0 - - - - - 1020,2 20
15.08.2018 16:00:00 18,8 13,8 - - 0 0 - 1020,6 20
15.08.2018 15:00:00 19,2 13,9 - - 0 0 - 1020,7 20
15.08.2018 14:00:00 18,6 13,5 - - - - - 1020,8 10
15.08.2018 13:00:00 18,2 13,6 - - 0 0 - 1021,0 20
15.08.2018 12:00:00 18,0 13,5 - - 0 0 - 1021,2 20
15.08.2018 11:00:00 17,5 13,9 - - - - - 1021,2 20
15.08.2018 10:00:00 18,0 14,6 - - 0 0 - 1020,6 10
15.08.2018 09:00:00 15,3 14,0 - - 0 0 - 1020,6 20
15.08.2018 08:00:00 15,1 14,0 - - - - - 1020,2 20
15.08.2018 07:00:00 14,1 13,0 - - 0 0 - 1020,2 20
15.08.2018 06:00:00 13,8 12,8 - - 0 0 - 1020,0 17
15.08.2018 05:00:00 13,6 12,5 - - - - - 1019,8 20
15.08.2018 04:00:00 13,7 12,3 - - 0 0 - 1020,0 20
15.08.2018 03:00:00 14,6 12,3 - - 0 0 - 1020,2 20
15.08.2018 02:00:00 14,7 12,2 - - - - - 1020,6 20
15.08.2018 01:00:00 15,2 12,0 - - 0 0 - 1020,6 20
15.08.2018 00:00:00 16,0 11,6 - - 0 0 - 1020,2 20
14.08.2018 23:00:00 16,7 11,6 - - - - - 1019,7 20
14.08.2018 22:00:00 17,3 11,7 - - 0 0 - 1019,2 20
14.08.2018 21:00:00 18,7 12,4 - - 0 0 - 1018,6 20
14.08.2018 20:00:00 19,5 12,9 - - - - - 1018,0 20
14.08.2018 19:00:00 20,0 13,4 - - 0 0 - 1017,8 20
14.08.2018 18:00:00 20,3 13,5 - - 0 0 - 1017,7 20
14.08.2018 17:00:00 20,2 14,5 11 6 - - W 1017,6 20
14.08.2018 16:00:00 20,7 14,2 11 6 0 0 W 1017,2 20
14.08.2018 15:00:00 20,8 14,9 11 6 0 0 W 1016,8 20
14.08.2018 14:00:00 19,5 14,3 11 6 - - W 1017,0 15
14.08.2018 13:00:00 19,7 15,8 11 6 0 0 W 1016,5 15
14.08.2018 12:00:00 18,2 15,1 11 6 0 0 W 1016,3 15
14.08.2018 11:00:00 17,8 15,5 11 6 - - ZW 1016,0 9
14.08.2018 10:00:00 16,6 15,3 11 6 0 0 ZW 1015,7 3,5
14.08.2018 09:00:00 15,5 15,1 13 7 0 0 WZW 1015,2 2,5
14.08.2018 08:00:00 15,0 14,7 11 6 - - WZW 1014,5 1,2
14.08.2018 07:00:00 15,0 14,4 13 7 0 0 WZW 1013,7 2,5
14.08.2018 06:00:00 14,8 14,1 11 6 0 0 WZW 1013,2 10
14.08.2018 05:00:00 14,5 13,8 - - - - - 1013,1 10
14.08.2018 04:00:00 14,2 13,3 - - 0 0 - 1012,8 16
14.08.2018 03:00:00 14,0 12,9 - - 0 0 - 1012,6 20
14.08.2018 02:00:00 14,1 12,9 - - - - - 1012,3 20
14.08.2018 01:00:00 14,6 13,1 - - 0 0 - 1012,0 20
14.08.2018 00:00:00 15,2 13,4 - - 0 0 - 1011,5 20
13.08.2018 23:00:00 15,5 13,7 - - - - - 1011,1 20
13.08.2018 22:00:00 16,5 14,2 - - 0 0 - 1010,7 20
13.08.2018 21:00:00 16,5 15,0 - - 0 0 - 1009,7 20
13.08.2018 20:00:00 16,8 14,8 - - - - - 1009,3 20
13.08.2018 19:00:00 17,8 15,1 - - 0 0 - 1008,7 20
13.08.2018 18:00:00 17,7 14,8 - - 0 0 - 1008,5 20
13.08.2018 17:00:00 19,2 15,4 18 10 - - WZW 1008,1 5
13.08.2018 16:00:00 16,3 14,8 18 10 0 0 WZW 1008,5 5
13.08.2018 15:00:00 17,8 16,0 18 10 0 0 WZW 1008,2 10
13.08.2018 14:00:00 15,5 14,7 22 12 - - WZW 1008,8 7
13.08.2018 13:00:00 15,8 14,5 22 12 0 0 WZW 1008,7 4,5
13.08.2018 12:00:00 16,8 15,5 22 12 0 0 ZZW 1008,1 12
13.08.2018 11:00:00 15,8 15,1 22 12 - - ZZW 1007,7 4,0
13.08.2018 10:00:00 16,3 15,5 18 10 0 0 ZW 1007,7 6
13.08.2018 09:00:00 16,5 15,4 18 10 0 0 ZW 1007,7 10
13.08.2018 08:00:00 16,0 15,0 7 4 - - W 1007,6 12
13.08.2018 07:00:00 15,5 14,6 11 6 0 0 Z 1006,7 12
13.08.2018 06:00:00 15,5 14,9 11 6 0 0 OZO 1006,7 6
13.08.2018 05:00:00 15,8 15,1 11 6 - - OZO 1007,8 4,2
13.08.2018 04:00:00 17,5 14,7 - - 0 0 - 1008,7 17
13.08.2018 03:00:00 18,4 13,3 - - 0 0 - 1008,5 20
13.08.2018 02:00:00 20,8 9,3 - - - - - 1008,0 20
13.08.2018 01:00:00 20,2 8,8 - - 0 0 - 1008,1 20
13.08.2018 00:00:00 20,7 8,8 - - 0 0 - 1008,6 20
12.08.2018 23:00:00 21,0 8,5 - - - - - 1009,2 20
12.08.2018 22:00:00 21,5 8,5 - - 0 0 - 1009,7 18
12.08.2018 21:00:00 22,2 8,3 - - 0 0 - 1009,8 6
12.08.2018 20:00:00 24,2 8,0 - - - - - 1010,2 20
12.08.2018 19:00:00 25,2 7,7 - - 0 0 - 1010,3 20
12.08.2018 18:00:00 25,1 8,3 - - 0 0 - 1011,1 20
12.08.2018 17:00:00 24,7 8,4 - - - - - 1011,7 20
12.08.2018 16:00:00 24,9 7,3 - - 0 0 - 1012,6 20
12.08.2018 15:00:00 24,0 6,7 - - 0 0 - 1013,6 20
12.08.2018 14:00:00 24,3 7,5 - - - - - 1014,2 20
12.08.2018 13:00:00 23,4 7,0 - - 0 0 - 1015,1 20
12.08.2018 12:00:00 21,6 8,2 - - 0 0 - 1015,8 20
12.08.2018 11:00:00 20,8 9,7 - - - - - 1016,2 20
12.08.2018 10:00:00 19,4 9,3 - - 0 0 - 1017,0 20
12.08.2018 09:00:00 16,8 7,5 - - 0 0 - 1017,7 20
12.08.2018 08:00:00 15,6 7,1 - - - - - 1018,0 20
12.08.2018 07:00:00 13,3 6,7 - - 0 0 - 1018,7 20
12.08.2018 06:00:00 12,5 7,0 - - 0 0 - 1018,8 20
12.08.2018 05:00:00 12,8 7,2 - - - - - 1019,5 20
12.08.2018 04:00:00 13,2 7,3 - - 0 0 - 1020,2 20
12.08.2018 03:00:00 12,3 7,8 - - 0 0 - 1020,7 20
12.08.2018 02:00:00 13,2 7,6 - - - - - 1021,2 20
12.08.2018 01:00:00 14,1 7,3 - - 0 0 - 1021,7 20
12.08.2018 00:00:00 14,8 7,3 - - 0 0 - 1022,1 20
11.08.2018 23:00:00 16,6 6,7 - - - - - 1022,2 20
11.08.2018 22:00:00 16,7 7,4 - - 0 0 - 1022,2 20
11.08.2018 21:00:00 18,0 6,5 - - 0 0 - 1022,2 20
11.08.2018 20:00:00 19,8 6,3 - - - - - 1022,1 20
11.08.2018 19:00:00 20,2 6,0 - - 0 0 - 1022,2 20
11.08.2018 18:00:00 20,8 5,5 - - 0 0 - 1022,2 20
11.08.2018 17:00:00 21,1 6,4 - - - - - 1022,6 20
11.08.2018 16:00:00 19,8 5,1 - - 0 0 - 1023,1 20
11.08.2018 15:00:00 20,2 4,7 - - 0 0 - 1023,2 20
11.08.2018 14:00:00 19,5 5,9 - - - - - 1023,6 20
11.08.2018 13:00:00 18,7 6,2 - - 0 0 - 1023,8 20

tt = temperatuur
td = dauwpunt
ff = windsnelheid
fx = windstoten
dd = windrichting
ppp = luchtdruk
vv = zicht

Weerstations in de omgeving